Index of /20260413/WXO-DD/model_gdps/15km/12/198
Name Last modified Size Description
Parent Directory -
20260413T12Z_MSC_GDPS_AbsoluteVorticity_IsbL-0200_LatLon0.15_PT198H.grib2 2026-04-13 16:54 1.5M
20260413T12Z_MSC_GDPS_AbsoluteVorticity_IsbL-0250_LatLon0.15_PT198H.grib2 2026-04-13 16:54 1.3M
20260413T12Z_MSC_GDPS_AbsoluteVorticity_IsbL-0500_LatLon0.15_PT198H.grib2 2026-04-13 16:54 1.2M
20260413T12Z_MSC_GDPS_AbsoluteVorticity_IsbL-0700_LatLon0.15_PT198H.grib2 2026-04-13 16:54 1.3M
20260413T12Z_MSC_GDPS_AbsoluteVorticity_IsbL-0850_LatLon0.15_PT198H.grib2 2026-04-13 16:54 1.6M
20260413T12Z_MSC_GDPS_AirTemp-Max_AGL-2m_LatLon0.15_PT198H.grib2 2026-04-13 16:54 748K
20260413T12Z_MSC_GDPS_AirTemp-Min_AGL-2m_LatLon0.15_PT198H.grib2 2026-04-13 16:54 797K
20260413T12Z_MSC_GDPS_AirTemp_AGL-120m_LatLon0.15_PT198H.grib2 2026-04-13 16:54 915K
20260413T12Z_MSC_GDPS_AirTemp_AGL-2m_LatLon0.15_PT198H.grib2 2026-04-13 16:54 1.0M
20260413T12Z_MSC_GDPS_AirTemp_AGL-40m_LatLon0.15_PT198H.grib2 2026-04-13 16:54 819K
20260413T12Z_MSC_GDPS_AirTemp_AGL-80m_LatLon0.15_PT198H.grib2 2026-04-13 16:54 924K
20260413T12Z_MSC_GDPS_AirTemp_IsbL-0001_LatLon0.15_PT198H.grib2 2026-04-13 16:54 698K
20260413T12Z_MSC_GDPS_AirTemp_IsbL-0005_LatLon0.15_PT198H.grib2 2026-04-13 16:54 750K
20260413T12Z_MSC_GDPS_AirTemp_IsbL-0010_LatLon0.15_PT198H.grib2 2026-04-13 16:54 757K
20260413T12Z_MSC_GDPS_AirTemp_IsbL-0020_LatLon0.15_PT198H.grib2 2026-04-13 16:54 702K
20260413T12Z_MSC_GDPS_AirTemp_IsbL-0030_LatLon0.15_PT198H.grib2 2026-04-13 16:54 761K
20260413T12Z_MSC_GDPS_AirTemp_IsbL-0050_LatLon0.15_PT198H.grib2 2026-04-13 16:54 822K
20260413T12Z_MSC_GDPS_AirTemp_IsbL-0100_LatLon0.15_PT198H.grib2 2026-04-13 16:54 970K
20260413T12Z_MSC_GDPS_AirTemp_IsbL-0150_LatLon0.15_PT198H.grib2 2026-04-13 16:54 1.0M
20260413T12Z_MSC_GDPS_AirTemp_IsbL-0175_LatLon0.15_PT198H.grib2 2026-04-13 16:54 1.0M
20260413T12Z_MSC_GDPS_AirTemp_IsbL-0200_LatLon0.15_PT198H.grib2 2026-04-13 16:54 1.0M
20260413T12Z_MSC_GDPS_AirTemp_IsbL-0225_LatLon0.15_PT198H.grib2 2026-04-13 16:54 1.0M
20260413T12Z_MSC_GDPS_AirTemp_IsbL-0250_LatLon0.15_PT198H.grib2 2026-04-13 16:54 1.0M
20260413T12Z_MSC_GDPS_AirTemp_IsbL-0275_LatLon0.15_PT198H.grib2 2026-04-13 16:54 1.0M
20260413T12Z_MSC_GDPS_AirTemp_IsbL-0300_LatLon0.15_PT198H.grib2 2026-04-13 16:54 1.0M
20260413T12Z_MSC_GDPS_AirTemp_IsbL-0350_LatLon0.15_PT198H.grib2 2026-04-13 16:54 943K
20260413T12Z_MSC_GDPS_AirTemp_IsbL-0400_LatLon0.15_PT198H.grib2 2026-04-13 16:54 953K
20260413T12Z_MSC_GDPS_AirTemp_IsbL-0450_LatLon0.15_PT198H.grib2 2026-04-13 16:54 973K
20260413T12Z_MSC_GDPS_AirTemp_IsbL-0500_LatLon0.15_PT198H.grib2 2026-04-13 16:54 1.0M
20260413T12Z_MSC_GDPS_AirTemp_IsbL-0550_LatLon0.15_PT198H.grib2 2026-04-13 16:54 811K
20260413T12Z_MSC_GDPS_AirTemp_IsbL-0600_LatLon0.15_PT198H.grib2 2026-04-13 16:54 903K
20260413T12Z_MSC_GDPS_AirTemp_IsbL-0650_LatLon0.15_PT198H.grib2 2026-04-13 16:54 925K
20260413T12Z_MSC_GDPS_AirTemp_IsbL-0700_LatLon0.15_PT198H.grib2 2026-04-13 16:54 963K
20260413T12Z_MSC_GDPS_AirTemp_IsbL-0750_LatLon0.15_PT198H.grib2 2026-04-13 16:54 1.0M
20260413T12Z_MSC_GDPS_AirTemp_IsbL-0800_LatLon0.15_PT198H.grib2 2026-04-13 16:54 1.1M
20260413T12Z_MSC_GDPS_AirTemp_IsbL-0850_LatLon0.15_PT198H.grib2 2026-04-13 16:54 1.1M
20260413T12Z_MSC_GDPS_AirTemp_IsbL-0875_LatLon0.15_PT198H.grib2 2026-04-13 16:54 1.2M
20260413T12Z_MSC_GDPS_AirTemp_IsbL-0900_LatLon0.15_PT198H.grib2 2026-04-13 16:54 1.2M
20260413T12Z_MSC_GDPS_AirTemp_IsbL-0925_LatLon0.15_PT198H.grib2 2026-04-13 16:54 1.1M
20260413T12Z_MSC_GDPS_AirTemp_IsbL-0950_LatLon0.15_PT198H.grib2 2026-04-13 16:54 1.1M
20260413T12Z_MSC_GDPS_AirTemp_IsbL-0970_LatLon0.15_PT198H.grib2 2026-04-13 16:54 1.2M
20260413T12Z_MSC_GDPS_AirTemp_IsbL-0985_LatLon0.15_PT198H.grib2 2026-04-13 16:54 1.1M
20260413T12Z_MSC_GDPS_AirTemp_IsbL-1000_LatLon0.15_PT198H.grib2 2026-04-13 16:54 1.1M
20260413T12Z_MSC_GDPS_AirTemp_IsbL-1015_LatLon0.15_PT198H.grib2 2026-04-13 16:54 1.1M
20260413T12Z_MSC_GDPS_Albedo_Sfc_LatLon0.15_PT198H.grib2 2026-04-13 16:54 250K
20260413T12Z_MSC_GDPS_CAPE_Sfc_LatLon0.15_PT198H.grib2 2026-04-13 16:54 3.7M
20260413T12Z_MSC_GDPS_CIN_Sfc_LatLon0.15_PT198H.grib2 2026-04-13 16:54 2.8M
20260413T12Z_MSC_GDPS_CloudWater_EAtm_LatLon0.15_PT198H.grib2 2026-04-13 16:54 535K
20260413T12Z_MSC_GDPS_ConvectivePrecip-Accum_Sfc_LatLon0.15_PT198H.grib2 2026-04-13 16:54 3.6M
20260413T12Z_MSC_GDPS_DewPointDepression_AGL-2m_LatLon0.15_PT198H.grib2 2026-04-13 16:54 758K
20260413T12Z_MSC_GDPS_DewPointDepression_IsbL-0010_LatLon0.15_PT198H.grib2 2026-04-13 16:54 9.3K
20260413T12Z_MSC_GDPS_DewPointDepression_IsbL-0020_LatLon0.15_PT198H.grib2 2026-04-13 16:54 60K
20260413T12Z_MSC_GDPS_DewPointDepression_IsbL-0030_LatLon0.15_PT198H.grib2 2026-04-13 16:54 71K
20260413T12Z_MSC_GDPS_DewPointDepression_IsbL-0050_LatLon0.15_PT198H.grib2 2026-04-13 16:54 360K
20260413T12Z_MSC_GDPS_DewPointDepression_IsbL-0100_LatLon0.15_PT198H.grib2 2026-04-13 16:54 379K
20260413T12Z_MSC_GDPS_DewPointDepression_IsbL-0150_LatLon0.15_PT198H.grib2 2026-04-13 16:54 463K
20260413T12Z_MSC_GDPS_DewPointDepression_IsbL-0175_LatLon0.15_PT198H.grib2 2026-04-13 16:54 559K
20260413T12Z_MSC_GDPS_DewPointDepression_IsbL-0200_LatLon0.15_PT198H.grib2 2026-04-13 16:54 653K
20260413T12Z_MSC_GDPS_DewPointDepression_IsbL-0225_LatLon0.15_PT198H.grib2 2026-04-13 16:54 772K
20260413T12Z_MSC_GDPS_DewPointDepression_IsbL-0250_LatLon0.15_PT198H.grib2 2026-04-13 16:54 868K
20260413T12Z_MSC_GDPS_DewPointDepression_IsbL-0275_LatLon0.15_PT198H.grib2 2026-04-13 16:54 888K
20260413T12Z_MSC_GDPS_DewPointDepression_IsbL-0300_LatLon0.15_PT198H.grib2 2026-04-13 16:54 931K
20260413T12Z_MSC_GDPS_DewPointDepression_IsbL-0350_LatLon0.15_PT198H.grib2 2026-04-13 16:54 961K
20260413T12Z_MSC_GDPS_DewPointDepression_IsbL-0400_LatLon0.15_PT198H.grib2 2026-04-13 16:54 1.0M
20260413T12Z_MSC_GDPS_DewPointDepression_IsbL-0450_LatLon0.15_PT198H.grib2 2026-04-13 16:54 1.0M
20260413T12Z_MSC_GDPS_DewPointDepression_IsbL-0500_LatLon0.15_PT198H.grib2 2026-04-13 16:54 1.0M
20260413T12Z_MSC_GDPS_DewPointDepression_IsbL-0550_LatLon0.15_PT198H.grib2 2026-04-13 16:54 1.0M
20260413T12Z_MSC_GDPS_DewPointDepression_IsbL-0600_LatLon0.15_PT198H.grib2 2026-04-13 16:54 1.1M
20260413T12Z_MSC_GDPS_DewPointDepression_IsbL-0650_LatLon0.15_PT198H.grib2 2026-04-13 16:54 1.1M
20260413T12Z_MSC_GDPS_DewPointDepression_IsbL-0700_LatLon0.15_PT198H.grib2 2026-04-13 16:54 1.1M
20260413T12Z_MSC_GDPS_DewPointDepression_IsbL-0750_LatLon0.15_PT198H.grib2 2026-04-13 16:54 1.1M
20260413T12Z_MSC_GDPS_DewPointDepression_IsbL-0800_LatLon0.15_PT198H.grib2 2026-04-13 16:54 1.2M
20260413T12Z_MSC_GDPS_DewPointDepression_IsbL-0850_LatLon0.15_PT198H.grib2 2026-04-13 16:54 1.2M
20260413T12Z_MSC_GDPS_DewPointDepression_IsbL-0875_LatLon0.15_PT198H.grib2 2026-04-13 16:54 1.1M
20260413T12Z_MSC_GDPS_DewPointDepression_IsbL-0900_LatLon0.15_PT198H.grib2 2026-04-13 16:54 1.1M
20260413T12Z_MSC_GDPS_DewPointDepression_IsbL-0925_LatLon0.15_PT198H.grib2 2026-04-13 16:54 1.0M
20260413T12Z_MSC_GDPS_DewPointDepression_IsbL-0950_LatLon0.15_PT198H.grib2 2026-04-13 16:54 1.0M
20260413T12Z_MSC_GDPS_DewPointDepression_IsbL-0970_LatLon0.15_PT198H.grib2 2026-04-13 16:54 1.0M
20260413T12Z_MSC_GDPS_DewPointDepression_IsbL-0985_LatLon0.15_PT198H.grib2 2026-04-13 16:54 1.0M
20260413T12Z_MSC_GDPS_DewPointDepression_IsbL-1000_LatLon0.15_PT198H.grib2 2026-04-13 16:54 1.0M
20260413T12Z_MSC_GDPS_DewPointDepression_IsbL-1015_LatLon0.15_PT198H.grib2 2026-04-13 16:54 914K
20260413T12Z_MSC_GDPS_DewPoint_AGL-2m_LatLon0.15_PT198H.grib2 2026-04-13 16:54 615K
20260413T12Z_MSC_GDPS_DownwardLongwaveRadiationFlux-Accum_Sfc_LatLon0.15_PT198H.grib2 2026-04-13 16:54 666K
20260413T12Z_MSC_GDPS_DownwardShortwaveRadiationFlux-Accum_NTAtm_LatLon0.15_PT198H.grib2 2026-04-13 16:54 269K
20260413T12Z_MSC_GDPS_DownwardShortwaveRadiationFlux-Accum_Sfc_LatLon0.15_PT198H.grib2 2026-04-13 16:54 876K
20260413T12Z_MSC_GDPS_FreezingRain-Accum12h_Sfc_LatLon0.15_PT198H.grib2 2026-04-13 16:54 75K
20260413T12Z_MSC_GDPS_FreezingRain-Accum24h_Sfc_LatLon0.15_PT198H.grib2 2026-04-13 16:54 101K
20260413T12Z_MSC_GDPS_FreezingRain-Accum6h_Sfc_LatLon0.15_PT198H.grib2 2026-04-13 16:54 61K
20260413T12Z_MSC_GDPS_FreezingRain-Accum_Sfc_LatLon0.15_PT198H.grib2 2026-04-13 16:54 359K
20260413T12Z_MSC_GDPS_GeopotentialHeight_IsbL-0001_LatLon0.15_PT198H.grib2 2026-04-13 16:54 395K
20260413T12Z_MSC_GDPS_GeopotentialHeight_IsbL-0005_LatLon0.15_PT198H.grib2 2026-04-13 16:54 499K
20260413T12Z_MSC_GDPS_GeopotentialHeight_IsbL-0010_LatLon0.15_PT198H.grib2 2026-04-13 16:54 432K
20260413T12Z_MSC_GDPS_GeopotentialHeight_IsbL-0020_LatLon0.15_PT198H.grib2 2026-04-13 16:54 577K
20260413T12Z_MSC_GDPS_GeopotentialHeight_IsbL-0030_LatLon0.15_PT198H.grib2 2026-04-13 16:54 585K
20260413T12Z_MSC_GDPS_GeopotentialHeight_IsbL-0050_LatLon0.15_PT198H.grib2 2026-04-13 16:54 587K
20260413T12Z_MSC_GDPS_GeopotentialHeight_IsbL-0100_LatLon0.15_PT198H.grib2 2026-04-13 16:54 623K
20260413T12Z_MSC_GDPS_GeopotentialHeight_IsbL-0150_LatLon0.15_PT198H.grib2 2026-04-13 16:54 641K
20260413T12Z_MSC_GDPS_GeopotentialHeight_IsbL-0175_LatLon0.15_PT198H.grib2 2026-04-13 16:54 647K
20260413T12Z_MSC_GDPS_GeopotentialHeight_IsbL-0200_LatLon0.15_PT198H.grib2 2026-04-13 16:54 651K
20260413T12Z_MSC_GDPS_GeopotentialHeight_IsbL-0225_LatLon0.15_PT198H.grib2 2026-04-13 16:54 646K
20260413T12Z_MSC_GDPS_GeopotentialHeight_IsbL-0250_LatLon0.15_PT198H.grib2 2026-04-13 16:54 654K
20260413T12Z_MSC_GDPS_GeopotentialHeight_IsbL-0275_LatLon0.15_PT198H.grib2 2026-04-13 16:54 651K
20260413T12Z_MSC_GDPS_GeopotentialHeight_IsbL-0300_LatLon0.15_PT198H.grib2 2026-04-13 16:54 649K
20260413T12Z_MSC_GDPS_GeopotentialHeight_IsbL-0350_LatLon0.15_PT198H.grib2 2026-04-13 16:54 640K
20260413T12Z_MSC_GDPS_GeopotentialHeight_IsbL-0400_LatLon0.15_PT198H.grib2 2026-04-13 16:54 631K
20260413T12Z_MSC_GDPS_GeopotentialHeight_IsbL-0450_LatLon0.15_PT198H.grib2 2026-04-13 16:54 551K
20260413T12Z_MSC_GDPS_GeopotentialHeight_IsbL-0500_LatLon0.15_PT198H.grib2 2026-04-13 16:54 539K
20260413T12Z_MSC_GDPS_GeopotentialHeight_IsbL-0550_LatLon0.15_PT198H.grib2 2026-04-13 16:54 534K
20260413T12Z_MSC_GDPS_GeopotentialHeight_IsbL-0600_LatLon0.15_PT198H.grib2 2026-04-13 16:54 696K
20260413T12Z_MSC_GDPS_GeopotentialHeight_IsbL-0650_LatLon0.15_PT198H.grib2 2026-04-13 16:54 694K
20260413T12Z_MSC_GDPS_GeopotentialHeight_IsbL-0700_LatLon0.15_PT198H.grib2 2026-04-13 16:54 695K
20260413T12Z_MSC_GDPS_GeopotentialHeight_IsbL-0750_LatLon0.15_PT198H.grib2 2026-04-13 16:54 700K
20260413T12Z_MSC_GDPS_GeopotentialHeight_IsbL-0800_LatLon0.15_PT198H.grib2 2026-04-13 16:54 710K
20260413T12Z_MSC_GDPS_GeopotentialHeight_IsbL-0850_LatLon0.15_PT198H.grib2 2026-04-13 16:54 720K
20260413T12Z_MSC_GDPS_GeopotentialHeight_IsbL-0875_LatLon0.15_PT198H.grib2 2026-04-13 16:54 721K
20260413T12Z_MSC_GDPS_GeopotentialHeight_IsbL-0900_LatLon0.15_PT198H.grib2 2026-04-13 16:54 731K
20260413T12Z_MSC_GDPS_GeopotentialHeight_IsbL-0925_LatLon0.15_PT198H.grib2 2026-04-13 16:54 738K
20260413T12Z_MSC_GDPS_GeopotentialHeight_IsbL-0950_LatLon0.15_PT198H.grib2 2026-04-13 16:54 744K
20260413T12Z_MSC_GDPS_GeopotentialHeight_IsbL-0970_LatLon0.15_PT198H.grib2 2026-04-13 16:54 756K
20260413T12Z_MSC_GDPS_GeopotentialHeight_IsbL-0985_LatLon0.15_PT198H.grib2 2026-04-13 16:54 772K
20260413T12Z_MSC_GDPS_GeopotentialHeight_IsbL-1000_LatLon0.15_PT198H.grib2 2026-04-13 16:54 794K
20260413T12Z_MSC_GDPS_GeopotentialHeight_IsbL-1015_LatLon0.15_PT198H.grib2 2026-04-13 16:54 816K
20260413T12Z_MSC_GDPS_Humidex_Sfc_LatLon0.15_PT198H.grib2 2026-04-13 16:54 5.3M
20260413T12Z_MSC_GDPS_IcePellets-Accum12h_Sfc_LatLon0.15_PT198H.grib2 2026-04-13 16:54 36K
20260413T12Z_MSC_GDPS_IcePellets-Accum24h_Sfc_LatLon0.15_PT198H.grib2 2026-04-13 16:54 49K
20260413T12Z_MSC_GDPS_IcePellets-Accum6h_Sfc_LatLon0.15_PT198H.grib2 2026-04-13 16:54 27K
20260413T12Z_MSC_GDPS_IcePellets-Accum_Sfc_LatLon0.15_PT198H.grib2 2026-04-13 16:54 237K
20260413T12Z_MSC_GDPS_KIndex_Sfc_LatLon0.15_PT198H.grib2 2026-04-13 16:54 6.5M
20260413T12Z_MSC_GDPS_LatentHeatNetFlux_Sfc_LatLon0.15_PT198H.grib2 2026-04-13 16:54 517K
20260413T12Z_MSC_GDPS_LiftedIndex-MU-VT_IsbL-0500_LatLon0.15_PT198H.grib2 2026-04-13 16:54 5.4M
20260413T12Z_MSC_GDPS_NetLongwaveRadiationFlux-Accum_Sfc_LatLon0.15_PT198H.grib2 2026-04-13 16:54 888K
20260413T12Z_MSC_GDPS_NetShortwaveRadiationFlux-Accum_Sfc_LatLon0.15_PT198H.grib2 2026-04-13 16:54 881K
20260413T12Z_MSC_GDPS_O3MixingRatio_LatLon0.15_PT198H.grib2 2026-04-13 17:08 1.9M
20260413T12Z_MSC_GDPS_O3_EAtm_LatLon0.15_PT198H.grib2 2026-04-13 17:08 2.4M
20260413T12Z_MSC_GDPS_PlanetaryBoundaryLayerHeight_Sfc_LatLon0.15_PT198H.grib2 2026-04-13 16:54 2.4M
20260413T12Z_MSC_GDPS_Precip-Accum12h_Sfc_LatLon0.15_PT198H.grib2 2026-04-13 16:54 4.1M
20260413T12Z_MSC_GDPS_Precip-Accum24h_Sfc_LatLon0.15_PT198H.grib2 2026-04-13 16:54 4.6M
20260413T12Z_MSC_GDPS_Precip-Accum6h_Sfc_LatLon0.15_PT198H.grib2 2026-04-13 16:54 3.9M
20260413T12Z_MSC_GDPS_Precip-Accum_Sfc_LatLon0.15_PT198H.grib2 2026-04-13 16:54 5.0M
20260413T12Z_MSC_GDPS_PrecipRate_Sfc_LatLon0.15_PT198H.grib2 2026-04-13 16:54 2.9M
20260413T12Z_MSC_GDPS_PrecipType-Instant_Sfc_LatLon0.15_PT198H.grib2 2026-04-13 16:54 1.6M
20260413T12Z_MSC_GDPS_Pressure_MSL_LatLon0.15_PT198H.grib2 2026-04-13 16:54 730K
20260413T12Z_MSC_GDPS_Pressure_PVU-1.5_LatLon0.15_PT198H.grib2 2026-04-13 16:54 5.8M
20260413T12Z_MSC_GDPS_Pressure_PVU-1_LatLon0.15_PT198H.grib2 2026-04-13 16:54 6.0M
20260413T12Z_MSC_GDPS_Pressure_PVU-2_LatLon0.15_PT198H.grib2 2026-04-13 16:54 5.6M
20260413T12Z_MSC_GDPS_Pressure_Sfc_LatLon0.15_PT198H.grib2 2026-04-13 16:54 1.1M
20260413T12Z_MSC_GDPS_RadiativeTemp_Sfc_LatLon0.15_PT198H.grib2 2026-04-13 16:54 669K
20260413T12Z_MSC_GDPS_Rain-Accum12h_Sfc_LatLon0.15_PT198H.grib2 2026-04-13 16:54 2.7M
20260413T12Z_MSC_GDPS_Rain-Accum24h_Sfc_LatLon0.15_PT198H.grib2 2026-04-13 16:54 3.1M
20260413T12Z_MSC_GDPS_Rain-Accum6h_Sfc_LatLon0.15_PT198H.grib2 2026-04-13 16:54 2.4M
20260413T12Z_MSC_GDPS_Rain-Accum_Sfc_LatLon0.15_PT198H.grib2 2026-04-13 16:54 4.1M
20260413T12Z_MSC_GDPS_RelativeHumidity_AGL-2m_LatLon0.15_PT198H.grib2 2026-04-13 16:54 1.0M
20260413T12Z_MSC_GDPS_RelativeHumidity_IsbL-0010_LatLon0.15_PT198H.grib2 2026-04-13 16:54 216K
20260413T12Z_MSC_GDPS_RelativeHumidity_IsbL-0020_LatLon0.15_PT198H.grib2 2026-04-13 16:54 351K
20260413T12Z_MSC_GDPS_RelativeHumidity_IsbL-0030_LatLon0.15_PT198H.grib2 2026-04-13 16:54 416K
20260413T12Z_MSC_GDPS_RelativeHumidity_IsbL-0050_LatLon0.15_PT198H.grib2 2026-04-13 16:54 324K
20260413T12Z_MSC_GDPS_RelativeHumidity_IsbL-0100_LatLon0.15_PT198H.grib2 2026-04-13 16:54 334K
20260413T12Z_MSC_GDPS_RelativeHumidity_IsbL-0150_LatLon0.15_PT198H.grib2 2026-04-13 16:54 650K
20260413T12Z_MSC_GDPS_RelativeHumidity_IsbL-0175_LatLon0.15_PT198H.grib2 2026-04-13 16:54 802K
20260413T12Z_MSC_GDPS_RelativeHumidity_IsbL-0200_LatLon0.15_PT198H.grib2 2026-04-13 16:54 714K
20260413T12Z_MSC_GDPS_RelativeHumidity_IsbL-0225_LatLon0.15_PT198H.grib2 2026-04-13 16:54 798K
20260413T12Z_MSC_GDPS_RelativeHumidity_IsbL-0250_LatLon0.15_PT198H.grib2 2026-04-13 16:54 877K
20260413T12Z_MSC_GDPS_RelativeHumidity_IsbL-0275_LatLon0.15_PT198H.grib2 2026-04-13 16:54 899K
20260413T12Z_MSC_GDPS_RelativeHumidity_IsbL-0300_LatLon0.15_PT198H.grib2 2026-04-13 16:54 944K
20260413T12Z_MSC_GDPS_RelativeHumidity_IsbL-0350_LatLon0.15_PT198H.grib2 2026-04-13 16:54 964K
20260413T12Z_MSC_GDPS_RelativeHumidity_IsbL-0400_LatLon0.15_PT198H.grib2 2026-04-13 16:54 1.0M
20260413T12Z_MSC_GDPS_RelativeHumidity_IsbL-0450_LatLon0.15_PT198H.grib2 2026-04-13 16:54 1.0M
20260413T12Z_MSC_GDPS_RelativeHumidity_IsbL-0500_LatLon0.15_PT198H.grib2 2026-04-13 16:54 1.0M
20260413T12Z_MSC_GDPS_RelativeHumidity_IsbL-0550_LatLon0.15_PT198H.grib2 2026-04-13 16:54 1.0M
20260413T12Z_MSC_GDPS_RelativeHumidity_IsbL-0600_LatLon0.15_PT198H.grib2 2026-04-13 16:54 1.0M
20260413T12Z_MSC_GDPS_RelativeHumidity_IsbL-0650_LatLon0.15_PT198H.grib2 2026-04-13 16:54 1.1M
20260413T12Z_MSC_GDPS_RelativeHumidity_IsbL-0700_LatLon0.15_PT198H.grib2 2026-04-13 16:54 1.1M
20260413T12Z_MSC_GDPS_RelativeHumidity_IsbL-0750_LatLon0.15_PT198H.grib2 2026-04-13 16:54 1.1M
20260413T12Z_MSC_GDPS_RelativeHumidity_IsbL-0800_LatLon0.15_PT198H.grib2 2026-04-13 16:54 1.2M
20260413T12Z_MSC_GDPS_RelativeHumidity_IsbL-0850_LatLon0.15_PT198H.grib2 2026-04-13 16:54 1.3M
20260413T12Z_MSC_GDPS_RelativeHumidity_IsbL-0875_LatLon0.15_PT198H.grib2 2026-04-13 16:54 1.3M
20260413T12Z_MSC_GDPS_RelativeHumidity_IsbL-0900_LatLon0.15_PT198H.grib2 2026-04-13 16:54 1.2M
20260413T12Z_MSC_GDPS_RelativeHumidity_IsbL-0925_LatLon0.15_PT198H.grib2 2026-04-13 16:54 1.2M
20260413T12Z_MSC_GDPS_RelativeHumidity_IsbL-0950_LatLon0.15_PT198H.grib2 2026-04-13 16:54 1.2M
20260413T12Z_MSC_GDPS_RelativeHumidity_IsbL-0970_LatLon0.15_PT198H.grib2 2026-04-13 16:54 1.2M
20260413T12Z_MSC_GDPS_RelativeHumidity_IsbL-0985_LatLon0.15_PT198H.grib2 2026-04-13 16:54 1.1M
20260413T12Z_MSC_GDPS_RelativeHumidity_IsbL-1000_LatLon0.15_PT198H.grib2 2026-04-13 16:54 1.1M
20260413T12Z_MSC_GDPS_RelativeHumidity_IsbL-1015_LatLon0.15_PT198H.grib2 2026-04-13 16:54 1.0M
20260413T12Z_MSC_GDPS_RelativeVorticity_IsbL-0200_LatLon0.15_PT198H.grib2 2026-04-13 16:54 1.5M
20260413T12Z_MSC_GDPS_RelativeVorticity_IsbL-0250_LatLon0.15_PT198H.grib2 2026-04-13 16:54 1.3M
20260413T12Z_MSC_GDPS_RelativeVorticity_IsbL-0500_LatLon0.15_PT198H.grib2 2026-04-13 16:54 1.2M
20260413T12Z_MSC_GDPS_RelativeVorticity_IsbL-0700_LatLon0.15_PT198H.grib2 2026-04-13 16:54 1.3M
20260413T12Z_MSC_GDPS_RelativeVorticity_IsbL-0850_LatLon0.15_PT198H.grib2 2026-04-13 16:54 1.6M
20260413T12Z_MSC_GDPS_Runoff-Accum_Sfc_LatLon0.15_PT198H.grib2 2026-04-13 16:54 107K
20260413T12Z_MSC_GDPS_SensibleHeatNetFlux_Sfc_LatLon0.15_PT198H.grib2 2026-04-13 16:54 463K
20260413T12Z_MSC_GDPS_ShowalterIndex_IsbL-0500_LatLon0.15_PT198H.grib2 2026-04-13 16:54 6.2M
20260413T12Z_MSC_GDPS_Snow-Accum12h_Sfc_LatLon0.15_PT198H.grib2 2026-04-13 16:54 1.4M
20260413T12Z_MSC_GDPS_Snow-Accum24h_Sfc_LatLon0.15_PT198H.grib2 2026-04-13 16:54 1.4M
20260413T12Z_MSC_GDPS_Snow-Accum6h_Sfc_LatLon0.15_PT198H.grib2 2026-04-13 16:54 1.4M
20260413T12Z_MSC_GDPS_Snow-Accum_Sfc_LatLon0.15_PT198H.grib2 2026-04-13 16:54 2.0M
20260413T12Z_MSC_GDPS_SnowDensity_Sfc_LatLon0.15_PT198H.grib2 2026-04-13 16:54 274K
20260413T12Z_MSC_GDPS_SnowDepth_Sfc_LatLon0.15_PT198H.grib2 2026-04-13 16:54 1.8M
20260413T12Z_MSC_GDPS_SoilTemp_DBS-0to10cm_LatLon0.15_PT198H.grib2 2026-04-13 16:54 512K
20260413T12Z_MSC_GDPS_SoilTemp_Sfc_LatLon0.15_PT198H.grib2 2026-04-13 16:54 583K
20260413T12Z_MSC_GDPS_SoilVolumetricIceContent_Sfc_LatLon0.15_PT198H.grib2 2026-04-13 16:54 223K
20260413T12Z_MSC_GDPS_SoilVolumetricWaterContent_DBS-0to10cm_LatLon0.15_PT198H.grib2 2026-04-13 16:54 553K
20260413T12Z_MSC_GDPS_SoilVolumetricWaterContent_DBS-0to1cm_LatLon0.15_PT198H.grib2 2026-04-13 16:54 648K
20260413T12Z_MSC_GDPS_SpecificHumidity_AGL-120m_LatLon0.15_PT198H.grib2 2026-04-13 16:54 1.1M
20260413T12Z_MSC_GDPS_SpecificHumidity_AGL-2m_LatLon0.15_PT198H.grib2 2026-04-13 16:54 1.2M
20260413T12Z_MSC_GDPS_SpecificHumidity_AGL-40m_LatLon0.15_PT198H.grib2 2026-04-13 16:54 1.1M
20260413T12Z_MSC_GDPS_SpecificHumidity_AGL-80m_LatLon0.15_PT198H.grib2 2026-04-13 16:54 1.1M
20260413T12Z_MSC_GDPS_SpecificHumidity_IsbL-0001_LatLon0.15_PT198H.grib2 2026-04-13 16:54 1.0M
20260413T12Z_MSC_GDPS_SpecificHumidity_IsbL-0005_LatLon0.15_PT198H.grib2 2026-04-13 16:54 1.0M
20260413T12Z_MSC_GDPS_SpecificHumidity_IsbL-0010_LatLon0.15_PT198H.grib2 2026-04-13 16:54 1.1M
20260413T12Z_MSC_GDPS_SpecificHumidity_IsbL-0020_LatLon0.15_PT198H.grib2 2026-04-13 16:54 1.5M
20260413T12Z_MSC_GDPS_SpecificHumidity_IsbL-0030_LatLon0.15_PT198H.grib2 2026-04-13 16:54 1.5M
20260413T12Z_MSC_GDPS_SpecificHumidity_IsbL-0050_LatLon0.15_PT198H.grib2 2026-04-13 16:54 1.2M
20260413T12Z_MSC_GDPS_SpecificHumidity_IsbL-0100_LatLon0.15_PT198H.grib2 2026-04-13 16:54 1.3M
20260413T12Z_MSC_GDPS_SpecificHumidity_IsbL-0150_LatLon0.15_PT198H.grib2 2026-04-13 16:54 1.3M
20260413T12Z_MSC_GDPS_SpecificHumidity_IsbL-0175_LatLon0.15_PT198H.grib2 2026-04-13 16:54 1.3M
20260413T12Z_MSC_GDPS_SpecificHumidity_IsbL-0200_LatLon0.15_PT198H.grib2 2026-04-13 16:54 1.3M
20260413T12Z_MSC_GDPS_SpecificHumidity_IsbL-0225_LatLon0.15_PT198H.grib2 2026-04-13 16:54 1.3M
20260413T12Z_MSC_GDPS_SpecificHumidity_IsbL-0250_LatLon0.15_PT198H.grib2 2026-04-13 16:54 1.2M
20260413T12Z_MSC_GDPS_SpecificHumidity_IsbL-0275_LatLon0.15_PT198H.grib2 2026-04-13 16:54 1.3M
20260413T12Z_MSC_GDPS_SpecificHumidity_IsbL-0300_LatLon0.15_PT198H.grib2 2026-04-13 16:54 1.2M
20260413T12Z_MSC_GDPS_SpecificHumidity_IsbL-0350_LatLon0.15_PT198H.grib2 2026-04-13 16:54 1.2M
20260413T12Z_MSC_GDPS_SpecificHumidity_IsbL-0400_LatLon0.15_PT198H.grib2 2026-04-13 16:54 1.5M
20260413T12Z_MSC_GDPS_SpecificHumidity_IsbL-0450_LatLon0.15_PT198H.grib2 2026-04-13 16:54 1.6M
20260413T12Z_MSC_GDPS_SpecificHumidity_IsbL-0500_LatLon0.15_PT198H.grib2 2026-04-13 16:54 1.4M
20260413T12Z_MSC_GDPS_SpecificHumidity_IsbL-0550_LatLon0.15_PT198H.grib2 2026-04-13 16:54 1.6M
20260413T12Z_MSC_GDPS_SpecificHumidity_IsbL-0600_LatLon0.15_PT198H.grib2 2026-04-13 16:54 1.4M
20260413T12Z_MSC_GDPS_SpecificHumidity_IsbL-0650_LatLon0.15_PT198H.grib2 2026-04-13 16:54 1.5M
20260413T12Z_MSC_GDPS_SpecificHumidity_IsbL-0700_LatLon0.15_PT198H.grib2 2026-04-13 16:54 1.6M
20260413T12Z_MSC_GDPS_SpecificHumidity_IsbL-0750_LatLon0.15_PT198H.grib2 2026-04-13 16:54 1.7M
20260413T12Z_MSC_GDPS_SpecificHumidity_IsbL-0800_LatLon0.15_PT198H.grib2 2026-04-13 16:54 1.8M
20260413T12Z_MSC_GDPS_SpecificHumidity_IsbL-0850_LatLon0.15_PT198H.grib2 2026-04-13 16:54 1.9M
20260413T12Z_MSC_GDPS_SpecificHumidity_IsbL-0875_LatLon0.15_PT198H.grib2 2026-04-13 16:54 1.9M
20260413T12Z_MSC_GDPS_SpecificHumidity_IsbL-0900_LatLon0.15_PT198H.grib2 2026-04-13 16:54 1.9M
20260413T12Z_MSC_GDPS_SpecificHumidity_IsbL-0925_LatLon0.15_PT198H.grib2 2026-04-13 16:54 1.6M
20260413T12Z_MSC_GDPS_SpecificHumidity_IsbL-0950_LatLon0.15_PT198H.grib2 2026-04-13 16:54 1.5M
20260413T12Z_MSC_GDPS_SpecificHumidity_IsbL-0970_LatLon0.15_PT198H.grib2 2026-04-13 16:54 1.5M
20260413T12Z_MSC_GDPS_SpecificHumidity_IsbL-0985_LatLon0.15_PT198H.grib2 2026-04-13 16:54 1.5M
20260413T12Z_MSC_GDPS_SpecificHumidity_IsbL-1000_LatLon0.15_PT198H.grib2 2026-04-13 16:54 1.5M
20260413T12Z_MSC_GDPS_SpecificHumidity_IsbL-1015_LatLon0.15_PT198H.grib2 2026-04-13 16:54 1.4M
20260413T12Z_MSC_GDPS_SpecificHumidity_Sfc_LatLon0.15_PT198H.grib2 2026-04-13 16:54 663K
20260413T12Z_MSC_GDPS_Thickness_IsbL-0850to0700_LatLon0.15_PT198H.grib2 2026-04-13 16:54 471K
20260413T12Z_MSC_GDPS_Thickness_IsbL-1000to0500_LatLon0.15_PT198H.grib2 2026-04-13 16:54 379K
20260413T12Z_MSC_GDPS_Thickness_IsbL-1000to0850_LatLon0.15_PT198H.grib2 2026-04-13 16:54 494K
20260413T12Z_MSC_GDPS_TotalCloudCover_Sfc_LatLon0.15_PT198H.grib2 2026-04-13 16:54 825K
20260413T12Z_MSC_GDPS_TotalTotalsIndex_Sfc_LatLon0.15_PT198H.grib2 2026-04-13 16:54 6.2M
20260413T12Z_MSC_GDPS_UVIndex-ClearSky-Max24h_Sfc_LatLon0.15_PT198H.grib2 2026-04-13 17:08 2.2M
20260413T12Z_MSC_GDPS_UVIndex-ClearSky_Sfc_LatLon0.15_PT198H.grib2 2026-04-13 17:08 1.0M
20260413T12Z_MSC_GDPS_UVIndex-Max24h_Sfc_LatLon0.15_PT198H.grib2 2026-04-13 17:08 3.2M
20260413T12Z_MSC_GDPS_UVIndex_Sfc_LatLon0.15_PT198H.grib2 2026-04-13 17:08 1.5M
20260413T12Z_MSC_GDPS_UpwardLongwaveRadiationFlux_NTAtm_LatLon0.15_PT198H.grib2 2026-04-13 16:54 847K
20260413T12Z_MSC_GDPS_VerticalVelocity_IsbL-0200_LatLon0.15_PT198H.grib2 2026-04-13 16:54 959K
20260413T12Z_MSC_GDPS_VerticalVelocity_IsbL-0250_LatLon0.15_PT198H.grib2 2026-04-13 16:54 858K
20260413T12Z_MSC_GDPS_VerticalVelocity_IsbL-0500_LatLon0.15_PT198H.grib2 2026-04-13 16:54 1.0M
20260413T12Z_MSC_GDPS_VerticalVelocity_IsbL-0600_LatLon0.15_PT198H.grib2 2026-04-13 16:54 1.0M
20260413T12Z_MSC_GDPS_VerticalVelocity_IsbL-0700_LatLon0.15_PT198H.grib2 2026-04-13 16:54 1.2M
20260413T12Z_MSC_GDPS_VerticalVelocity_IsbL-0850_LatLon0.15_PT198H.grib2 2026-04-13 16:54 1.3M
20260413T12Z_MSC_GDPS_WindChill_Sfc_LatLon0.15_PT198H.grib2 2026-04-13 16:54 5.3M
20260413T12Z_MSC_GDPS_WindDir_AGL-10m_LatLon0.15_PT198H.grib2 2026-04-13 16:54 1.3M
20260413T12Z_MSC_GDPS_WindDir_AGL-120m_LatLon0.15_PT198H.grib2 2026-04-13 16:54 1.4M
20260413T12Z_MSC_GDPS_WindDir_AGL-40m_LatLon0.15_PT198H.grib2 2026-04-13 16:54 1.4M
20260413T12Z_MSC_GDPS_WindDir_AGL-80m_LatLon0.15_PT198H.grib2 2026-04-13 16:54 1.4M
20260413T12Z_MSC_GDPS_WindDir_IsbL-0001_LatLon0.15_PT198H.grib2 2026-04-13 16:54 638K
20260413T12Z_MSC_GDPS_WindDir_IsbL-0005_LatLon0.15_PT198H.grib2 2026-04-13 16:54 787K
20260413T12Z_MSC_GDPS_WindDir_IsbL-0010_LatLon0.15_PT198H.grib2 2026-04-13 16:54 841K
20260413T12Z_MSC_GDPS_WindDir_IsbL-0020_LatLon0.15_PT198H.grib2 2026-04-13 16:54 917K
20260413T12Z_MSC_GDPS_WindDir_IsbL-0030_LatLon0.15_PT198H.grib2 2026-04-13 16:54 885K
20260413T12Z_MSC_GDPS_WindDir_IsbL-0050_LatLon0.15_PT198H.grib2 2026-04-13 16:54 948K
20260413T12Z_MSC_GDPS_WindDir_IsbL-0100_LatLon0.15_PT198H.grib2 2026-04-13 16:54 1.0M
20260413T12Z_MSC_GDPS_WindDir_IsbL-0150_LatLon0.15_PT198H.grib2 2026-04-13 16:54 1.0M
20260413T12Z_MSC_GDPS_WindDir_IsbL-0175_LatLon0.15_PT198H.grib2 2026-04-13 16:54 1.1M
20260413T12Z_MSC_GDPS_WindDir_IsbL-0200_LatLon0.15_PT198H.grib2 2026-04-13 16:54 1.1M
20260413T12Z_MSC_GDPS_WindDir_IsbL-0225_LatLon0.15_PT198H.grib2 2026-04-13 16:54 1.1M
20260413T12Z_MSC_GDPS_WindDir_IsbL-0250_LatLon0.15_PT198H.grib2 2026-04-13 16:54 1.1M
20260413T12Z_MSC_GDPS_WindDir_IsbL-0275_LatLon0.15_PT198H.grib2 2026-04-13 16:54 1.2M
20260413T12Z_MSC_GDPS_WindDir_IsbL-0300_LatLon0.15_PT198H.grib2 2026-04-13 16:54 1.2M
20260413T12Z_MSC_GDPS_WindDir_IsbL-0350_LatLon0.15_PT198H.grib2 2026-04-13 16:54 1.2M
20260413T12Z_MSC_GDPS_WindDir_IsbL-0400_LatLon0.15_PT198H.grib2 2026-04-13 16:54 1.3M
20260413T12Z_MSC_GDPS_WindDir_IsbL-0450_LatLon0.15_PT198H.grib2 2026-04-13 16:54 1.3M
20260413T12Z_MSC_GDPS_WindDir_IsbL-0500_LatLon0.15_PT198H.grib2 2026-04-13 16:54 1.3M
20260413T12Z_MSC_GDPS_WindDir_IsbL-0550_LatLon0.15_PT198H.grib2 2026-04-13 16:54 1.4M
20260413T12Z_MSC_GDPS_WindDir_IsbL-0600_LatLon0.15_PT198H.grib2 2026-04-13 16:54 1.5M
20260413T12Z_MSC_GDPS_WindDir_IsbL-0650_LatLon0.15_PT198H.grib2 2026-04-13 16:54 1.5M
20260413T12Z_MSC_GDPS_WindDir_IsbL-0700_LatLon0.15_PT198H.grib2 2026-04-13 16:54 1.6M
20260413T12Z_MSC_GDPS_WindDir_IsbL-0750_LatLon0.15_PT198H.grib2 2026-04-13 16:54 1.7M
20260413T12Z_MSC_GDPS_WindDir_IsbL-0800_LatLon0.15_PT198H.grib2 2026-04-13 16:54 1.8M
20260413T12Z_MSC_GDPS_WindDir_IsbL-0850_LatLon0.15_PT198H.grib2 2026-04-13 16:54 1.9M
20260413T12Z_MSC_GDPS_WindDir_IsbL-0875_LatLon0.15_PT198H.grib2 2026-04-13 16:54 2.0M
20260413T12Z_MSC_GDPS_WindDir_IsbL-0900_LatLon0.15_PT198H.grib2 2026-04-13 16:54 2.0M
20260413T12Z_MSC_GDPS_WindDir_IsbL-0925_LatLon0.15_PT198H.grib2 2026-04-13 16:54 2.0M
20260413T12Z_MSC_GDPS_WindDir_IsbL-0950_LatLon0.15_PT198H.grib2 2026-04-13 16:54 2.0M
20260413T12Z_MSC_GDPS_WindDir_IsbL-0970_LatLon0.15_PT198H.grib2 2026-04-13 16:54 2.0M
20260413T12Z_MSC_GDPS_WindDir_IsbL-0985_LatLon0.15_PT198H.grib2 2026-04-13 16:54 2.0M
20260413T12Z_MSC_GDPS_WindDir_IsbL-1000_LatLon0.15_PT198H.grib2 2026-04-13 16:54 2.1M
20260413T12Z_MSC_GDPS_WindDir_IsbL-1015_LatLon0.15_PT198H.grib2 2026-04-13 16:54 2.0M
20260413T12Z_MSC_GDPS_WindGust-Max_AGL-10m_LatLon0.15_PT198H.grib2 2026-04-13 16:54 2.2M
20260413T12Z_MSC_GDPS_WindGust-Min_AGL-10m_LatLon0.15_PT198H.grib2 2026-04-13 16:54 2.2M
20260413T12Z_MSC_GDPS_WindGust_AGL-10m_LatLon0.15_PT198H.grib2 2026-04-13 16:54 2.2M
20260413T12Z_MSC_GDPS_WindSpeed_AGL-10m_LatLon0.15_PT198H.grib2 2026-04-13 16:54 1.1M
20260413T12Z_MSC_GDPS_WindSpeed_AGL-120m_LatLon0.15_PT198H.grib2 2026-04-13 16:54 1.3M
20260413T12Z_MSC_GDPS_WindSpeed_AGL-40m_LatLon0.15_PT198H.grib2 2026-04-13 16:54 1.3M
20260413T12Z_MSC_GDPS_WindSpeed_AGL-80m_LatLon0.15_PT198H.grib2 2026-04-13 16:54 1.3M
20260413T12Z_MSC_GDPS_WindSpeed_IsbL-0001_LatLon0.15_PT198H.grib2 2026-04-13 16:54 633K
20260413T12Z_MSC_GDPS_WindSpeed_IsbL-0005_LatLon0.15_PT198H.grib2 2026-04-13 16:54 606K
20260413T12Z_MSC_GDPS_WindSpeed_IsbL-0010_LatLon0.15_PT198H.grib2 2026-04-13 16:54 621K
20260413T12Z_MSC_GDPS_WindSpeed_IsbL-0020_LatLon0.15_PT198H.grib2 2026-04-13 16:54 851K
20260413T12Z_MSC_GDPS_WindSpeed_IsbL-0030_LatLon0.15_PT198H.grib2 2026-04-13 16:54 932K
20260413T12Z_MSC_GDPS_WindSpeed_IsbL-0050_LatLon0.15_PT198H.grib2 2026-04-13 16:54 1.0M
20260413T12Z_MSC_GDPS_WindSpeed_IsbL-0100_LatLon0.15_PT198H.grib2 2026-04-13 16:54 1.1M
20260413T12Z_MSC_GDPS_WindSpeed_IsbL-0150_LatLon0.15_PT198H.grib2 2026-04-13 16:54 1.0M
20260413T12Z_MSC_GDPS_WindSpeed_IsbL-0175_LatLon0.15_PT198H.grib2 2026-04-13 16:54 1.0M
20260413T12Z_MSC_GDPS_WindSpeed_IsbL-0200_LatLon0.15_PT198H.grib2 2026-04-13 16:54 1.1M
20260413T12Z_MSC_GDPS_WindSpeed_IsbL-0225_LatLon0.15_PT198H.grib2 2026-04-13 16:54 1.1M
20260413T12Z_MSC_GDPS_WindSpeed_IsbL-0250_LatLon0.15_PT198H.grib2 2026-04-13 16:54 1.1M
20260413T12Z_MSC_GDPS_WindSpeed_IsbL-0275_LatLon0.15_PT198H.grib2 2026-04-13 16:54 1.1M
20260413T12Z_MSC_GDPS_WindSpeed_IsbL-0300_LatLon0.15_PT198H.grib2 2026-04-13 16:54 1.1M
20260413T12Z_MSC_GDPS_WindSpeed_IsbL-0350_LatLon0.15_PT198H.grib2 2026-04-13 16:54 1.1M
20260413T12Z_MSC_GDPS_WindSpeed_IsbL-0400_LatLon0.15_PT198H.grib2 2026-04-13 16:54 1.1M
20260413T12Z_MSC_GDPS_WindSpeed_IsbL-0450_LatLon0.15_PT198H.grib2 2026-04-13 16:54 1.1M
20260413T12Z_MSC_GDPS_WindSpeed_IsbL-0500_LatLon0.15_PT198H.grib2 2026-04-13 16:54 1.1M
20260413T12Z_MSC_GDPS_WindSpeed_IsbL-0550_LatLon0.15_PT198H.grib2 2026-04-13 16:54 1.1M
20260413T12Z_MSC_GDPS_WindSpeed_IsbL-0600_LatLon0.15_PT198H.grib2 2026-04-13 16:54 1.1M
20260413T12Z_MSC_GDPS_WindSpeed_IsbL-0650_LatLon0.15_PT198H.grib2 2026-04-13 16:54 1.2M
20260413T12Z_MSC_GDPS_WindSpeed_IsbL-0700_LatLon0.15_PT198H.grib2 2026-04-13 16:54 1.5M
20260413T12Z_MSC_GDPS_WindSpeed_IsbL-0750_LatLon0.15_PT198H.grib2 2026-04-13 16:54 1.6M
20260413T12Z_MSC_GDPS_WindSpeed_IsbL-0800_LatLon0.15_PT198H.grib2 2026-04-13 16:54 1.6M
20260413T12Z_MSC_GDPS_WindSpeed_IsbL-0850_LatLon0.15_PT198H.grib2 2026-04-13 16:54 1.8M
20260413T12Z_MSC_GDPS_WindSpeed_IsbL-0875_LatLon0.15_PT198H.grib2 2026-04-13 16:54 1.8M
20260413T12Z_MSC_GDPS_WindSpeed_IsbL-0900_LatLon0.15_PT198H.grib2 2026-04-13 16:54 1.8M
20260413T12Z_MSC_GDPS_WindSpeed_IsbL-0925_LatLon0.15_PT198H.grib2 2026-04-13 16:54 1.8M
20260413T12Z_MSC_GDPS_WindSpeed_IsbL-0950_LatLon0.15_PT198H.grib2 2026-04-13 16:54 1.8M
20260413T12Z_MSC_GDPS_WindSpeed_IsbL-0970_LatLon0.15_PT198H.grib2 2026-04-13 16:54 1.9M
20260413T12Z_MSC_GDPS_WindSpeed_IsbL-0985_LatLon0.15_PT198H.grib2 2026-04-13 16:54 1.9M
20260413T12Z_MSC_GDPS_WindSpeed_IsbL-1000_LatLon0.15_PT198H.grib2 2026-04-13 16:54 1.9M
20260413T12Z_MSC_GDPS_WindSpeed_IsbL-1015_LatLon0.15_PT198H.grib2 2026-04-13 16:54 1.8M
20260413T12Z_MSC_GDPS_WindU_AGL-10m_LatLon0.15_PT198H.grib2 2026-04-13 16:54 1.3M
20260413T12Z_MSC_GDPS_WindU_AGL-120m_LatLon0.15_PT198H.grib2 2026-04-13 16:54 1.0M
20260413T12Z_MSC_GDPS_WindU_AGL-40m_LatLon0.15_PT198H.grib2 2026-04-13 16:54 1.0M
20260413T12Z_MSC_GDPS_WindU_AGL-80m_LatLon0.15_PT198H.grib2 2026-04-13 16:54 1.0M
20260413T12Z_MSC_GDPS_WindU_IsbL-0001_LatLon0.15_PT198H.grib2 2026-04-13 16:54 633K
20260413T12Z_MSC_GDPS_WindU_IsbL-0005_LatLon0.15_PT198H.grib2 2026-04-13 16:54 686K
20260413T12Z_MSC_GDPS_WindU_IsbL-0010_LatLon0.15_PT198H.grib2 2026-04-13 16:54 698K
20260413T12Z_MSC_GDPS_WindU_IsbL-0020_LatLon0.15_PT198H.grib2 2026-04-13 16:54 654K
20260413T12Z_MSC_GDPS_WindU_IsbL-0030_LatLon0.15_PT198H.grib2 2026-04-13 16:54 658K
20260413T12Z_MSC_GDPS_WindU_IsbL-0050_LatLon0.15_PT198H.grib2 2026-04-13 16:54 703K
20260413T12Z_MSC_GDPS_WindU_IsbL-0100_LatLon0.15_PT198H.grib2 2026-04-13 16:54 927K
20260413T12Z_MSC_GDPS_WindU_IsbL-0150_LatLon0.15_PT198H.grib2 2026-04-13 16:54 1.0M
20260413T12Z_MSC_GDPS_WindU_IsbL-0175_LatLon0.15_PT198H.grib2 2026-04-13 16:54 1.0M
20260413T12Z_MSC_GDPS_WindU_IsbL-0200_LatLon0.15_PT198H.grib2 2026-04-13 16:54 853K
20260413T12Z_MSC_GDPS_WindU_IsbL-0225_LatLon0.15_PT198H.grib2 2026-04-13 16:54 862K
20260413T12Z_MSC_GDPS_WindU_IsbL-0250_LatLon0.15_PT198H.grib2 2026-04-13 16:54 862K
20260413T12Z_MSC_GDPS_WindU_IsbL-0275_LatLon0.15_PT198H.grib2 2026-04-13 16:54 885K
20260413T12Z_MSC_GDPS_WindU_IsbL-0300_LatLon0.15_PT198H.grib2 2026-04-13 16:54 933K
20260413T12Z_MSC_GDPS_WindU_IsbL-0350_LatLon0.15_PT198H.grib2 2026-04-13 16:54 896K
20260413T12Z_MSC_GDPS_WindU_IsbL-0400_LatLon0.15_PT198H.grib2 2026-04-13 16:54 896K
20260413T12Z_MSC_GDPS_WindU_IsbL-0450_LatLon0.15_PT198H.grib2 2026-04-13 16:54 1.1M
20260413T12Z_MSC_GDPS_WindU_IsbL-0500_LatLon0.15_PT198H.grib2 2026-04-13 16:54 1.1M
20260413T12Z_MSC_GDPS_WindU_IsbL-0550_LatLon0.15_PT198H.grib2 2026-04-13 16:54 1.1M
20260413T12Z_MSC_GDPS_WindU_IsbL-0600_LatLon0.15_PT198H.grib2 2026-04-13 16:54 1.1M
20260413T12Z_MSC_GDPS_WindU_IsbL-0650_LatLon0.15_PT198H.grib2 2026-04-13 16:54 1.2M
20260413T12Z_MSC_GDPS_WindU_IsbL-0700_LatLon0.15_PT198H.grib2 2026-04-13 16:54 1.2M
20260413T12Z_MSC_GDPS_WindU_IsbL-0750_LatLon0.15_PT198H.grib2 2026-04-13 16:54 1.3M
20260413T12Z_MSC_GDPS_WindU_IsbL-0800_LatLon0.15_PT198H.grib2 2026-04-13 16:54 1.4M
20260413T12Z_MSC_GDPS_WindU_IsbL-0850_LatLon0.15_PT198H.grib2 2026-04-13 16:54 1.4M
20260413T12Z_MSC_GDPS_WindU_IsbL-0875_LatLon0.15_PT198H.grib2 2026-04-13 16:54 1.5M
20260413T12Z_MSC_GDPS_WindU_IsbL-0900_LatLon0.15_PT198H.grib2 2026-04-13 16:54 1.5M
20260413T12Z_MSC_GDPS_WindU_IsbL-0925_LatLon0.15_PT198H.grib2 2026-04-13 16:54 1.5M
20260413T12Z_MSC_GDPS_WindU_IsbL-0950_LatLon0.15_PT198H.grib2 2026-04-13 16:54 1.4M
20260413T12Z_MSC_GDPS_WindU_IsbL-0970_LatLon0.15_PT198H.grib2 2026-04-13 16:54 1.4M
20260413T12Z_MSC_GDPS_WindU_IsbL-0985_LatLon0.15_PT198H.grib2 2026-04-13 16:54 1.4M
20260413T12Z_MSC_GDPS_WindU_IsbL-1000_LatLon0.15_PT198H.grib2 2026-04-13 16:54 1.4M
20260413T12Z_MSC_GDPS_WindU_IsbL-1015_LatLon0.15_PT198H.grib2 2026-04-13 16:54 1.4M
20260413T12Z_MSC_GDPS_WindV_AGL-10m_LatLon0.15_PT198H.grib2 2026-04-13 16:54 1.6M
20260413T12Z_MSC_GDPS_WindV_AGL-120m_LatLon0.15_PT198H.grib2 2026-04-13 16:54 1.0M
20260413T12Z_MSC_GDPS_WindV_AGL-40m_LatLon0.15_PT198H.grib2 2026-04-13 16:54 1.0M
20260413T12Z_MSC_GDPS_WindV_AGL-80m_LatLon0.15_PT198H.grib2 2026-04-13 16:54 1.0M
20260413T12Z_MSC_GDPS_WindV_IsbL-0001_LatLon0.15_PT198H.grib2 2026-04-13 16:54 692K
20260413T12Z_MSC_GDPS_WindV_IsbL-0005_LatLon0.15_PT198H.grib2 2026-04-13 16:54 849K
20260413T12Z_MSC_GDPS_WindV_IsbL-0010_LatLon0.15_PT198H.grib2 2026-04-13 16:54 877K
20260413T12Z_MSC_GDPS_WindV_IsbL-0020_LatLon0.15_PT198H.grib2 2026-04-13 16:54 932K
20260413T12Z_MSC_GDPS_WindV_IsbL-0030_LatLon0.15_PT198H.grib2 2026-04-13 16:54 934K
20260413T12Z_MSC_GDPS_WindV_IsbL-0050_LatLon0.15_PT198H.grib2 2026-04-13 16:54 1.0M
20260413T12Z_MSC_GDPS_WindV_IsbL-0100_LatLon0.15_PT198H.grib2 2026-04-13 16:54 859K
20260413T12Z_MSC_GDPS_WindV_IsbL-0150_LatLon0.15_PT198H.grib2 2026-04-13 16:54 1.0M
20260413T12Z_MSC_GDPS_WindV_IsbL-0175_LatLon0.15_PT198H.grib2 2026-04-13 16:54 1.0M
20260413T12Z_MSC_GDPS_WindV_IsbL-0200_LatLon0.15_PT198H.grib2 2026-04-13 16:54 853K
20260413T12Z_MSC_GDPS_WindV_IsbL-0225_LatLon0.15_PT198H.grib2 2026-04-13 16:54 860K
20260413T12Z_MSC_GDPS_WindV_IsbL-0250_LatLon0.15_PT198H.grib2 2026-04-13 16:54 917K
20260413T12Z_MSC_GDPS_WindV_IsbL-0275_LatLon0.15_PT198H.grib2 2026-04-13 16:54 938K
20260413T12Z_MSC_GDPS_WindV_IsbL-0300_LatLon0.15_PT198H.grib2 2026-04-13 16:54 868K
20260413T12Z_MSC_GDPS_WindV_IsbL-0350_LatLon0.15_PT198H.grib2 2026-04-13 16:54 884K
20260413T12Z_MSC_GDPS_WindV_IsbL-0400_LatLon0.15_PT198H.grib2 2026-04-13 16:54 885K
20260413T12Z_MSC_GDPS_WindV_IsbL-0450_LatLon0.15_PT198H.grib2 2026-04-13 16:54 884K
20260413T12Z_MSC_GDPS_WindV_IsbL-0500_LatLon0.15_PT198H.grib2 2026-04-13 16:54 1.1M
20260413T12Z_MSC_GDPS_WindV_IsbL-0550_LatLon0.15_PT198H.grib2 2026-04-13 16:54 1.1M
20260413T12Z_MSC_GDPS_WindV_IsbL-0600_LatLon0.15_PT198H.grib2 2026-04-13 16:54 1.1M
20260413T12Z_MSC_GDPS_WindV_IsbL-0650_LatLon0.15_PT198H.grib2 2026-04-13 16:54 1.2M
20260413T12Z_MSC_GDPS_WindV_IsbL-0700_LatLon0.15_PT198H.grib2 2026-04-13 16:54 1.2M
20260413T12Z_MSC_GDPS_WindV_IsbL-0750_LatLon0.15_PT198H.grib2 2026-04-13 16:54 1.3M
20260413T12Z_MSC_GDPS_WindV_IsbL-0800_LatLon0.15_PT198H.grib2 2026-04-13 16:54 1.3M
20260413T12Z_MSC_GDPS_WindV_IsbL-0850_LatLon0.15_PT198H.grib2 2026-04-13 16:54 1.4M
20260413T12Z_MSC_GDPS_WindV_IsbL-0875_LatLon0.15_PT198H.grib2 2026-04-13 16:54 1.4M
20260413T12Z_MSC_GDPS_WindV_IsbL-0900_LatLon0.15_PT198H.grib2 2026-04-13 16:54 1.5M
20260413T12Z_MSC_GDPS_WindV_IsbL-0925_LatLon0.15_PT198H.grib2 2026-04-13 16:54 1.5M
20260413T12Z_MSC_GDPS_WindV_IsbL-0950_LatLon0.15_PT198H.grib2 2026-04-13 16:54 1.4M
20260413T12Z_MSC_GDPS_WindV_IsbL-0970_LatLon0.15_PT198H.grib2 2026-04-13 16:54 1.4M
20260413T12Z_MSC_GDPS_WindV_IsbL-0985_LatLon0.15_PT198H.grib2 2026-04-13 16:54 1.4M
20260413T12Z_MSC_GDPS_WindV_IsbL-1000_LatLon0.15_PT198H.grib2 2026-04-13 16:54 1.4M
20260413T12Z_MSC_GDPS_WindV_IsbL-1015_LatLon0.15_PT198H.grib2 2026-04-13 16:54 1.6M